Martha's Vineyard, MA

2:37 AM EDT on May 30, 2017 (GMT -0400)
Martha's Vineyard

Weather History for KMVY - September, 2013

Change the Weather History Date:

Tuesday, September 17, 2013

  Actual Average Record
Temperature  
Mean Temperature 47 °F -  
Max Temperature 61 °F 70 °F 81 °F (1957)
Min Temperature 33 °F 54 °F 33 °F (2013)
Degree Days  
Heating Degree Days 18    
Moisture  
Dew Point 38 °F    
Average Humidity 62    
Maximum Humidity 92    
Minimum Humidity 42    
Precipitation  
Precipitation 0.00 in - - ()
Sea Level Pressure  
Sea Level Pressure 30.32 in    
Wind  
Wind Speed 14 mph (NNE)    
Max Wind Speed 23 mph    
Max Gust Speed 33 mph    
Visibility 10 miles    
Events      
Averages and records for this station are not official NWS values.
T = Trace of Precipitation, MM = Missing Value Source: NWS Daily Summary

Daily Weather History Graph

Daily Weather History Graph

Search for Another Location

Airport or City:

Trip Planner

Search our weather history database for the weather conditions in past years. The results will help you decide how hot, cold, wet, or windy it might be!

Date:

Astronomy

Sep. 17, 2013 Rise Set
Actual Time 6:25 AM EDT 6:47 PM EDT
Civil Twilight 5:57 AM EDT 7:15 PM EDT
Nautical Twilight 5:24 AM EDT 7:48 PM EDT
Astronomical Twilight 4:51 AM EDT 8:21 PM EDT
Moon 5:33 PM EDT (9/17) 4:14 AM EDT (9/17)
Length of Visible Light 13h 18m
Length of Day
12h 22m
Waxing Gibbous, 96% of the Moon is Illuminated
Sep 17
Waxing Gibbous
Sep 19
Full
Sep 26
Last Quarter
Oct 4
New
Oct 11
First Quarter

Hourly Weather History & Observations

Time (EDT) Temp. Dew Point Humidity Pressure Visibility Wind Dir Wind Speed Gust Speed Precip Events Conditions
12:53 AM 54.0 °F 43.0 °F 66% 30.20 in 10.0 mi North 11.5 mph - N/A   Clear
1:53 AM 55.0 °F 43.0 °F 64% 30.22 in 10.0 mi North 18.4 mph 26.5 mph N/A   Overcast
2:53 AM 54.0 °F 42.1 °F 64% 30.23 in 10.0 mi North 16.1 mph 31.1 mph N/A   Overcast
3:53 AM 53.1 °F 42.1 °F 66% 30.25 in 10.0 mi NNE 13.8 mph 29.9 mph N/A   Overcast
4:04 AM 53.6 °F 42.8 °F 67% 30.24 in 10.0 mi NNE 18.4 mph 25.3 mph N/A   Overcast
4:53 AM 53.1 °F 41.0 °F 64% 30.25 in 10.0 mi NNE 16.1 mph 24.2 mph N/A   Overcast
5:53 AM 52.0 °F 41.0 °F 66% 30.28 in 10.0 mi NNE 16.1 mph 23.0 mph N/A   Scattered Clouds
6:53 AM 51.1 °F 39.9 °F 66% 30.30 in 10.0 mi NNE 12.7 mph 19.6 mph N/A   Scattered Clouds
7:53 AM 54.0 °F 39.0 °F 57% 30.33 in 10.0 mi NNE 17.3 mph 23.0 mph N/A   Overcast
8:53 AM 54.0 °F 37.0 °F 53% 30.35 in 10.0 mi NE 16.1 mph 21.9 mph N/A   Overcast
9:53 AM 57.9 °F 37.0 °F 46% 30.37 in 10.0 mi NE 23.0 mph 33.4 mph N/A   Overcast
10:53 AM 59.0 °F 37.0 °F 44% 30.38 in 10.0 mi NNE 16.1 mph 28.8 mph N/A   Partly Cloudy
11:53 AM 59.0 °F 37.9 °F 46% 30.38 in 10.0 mi North 17.3 mph 25.3 mph N/A   Scattered Clouds
12:53 PM 60.1 °F 37.9 °F 44% 30.38 in 10.0 mi NNE 19.6 mph 25.3 mph N/A   Clear
1:53 PM 60.1 °F 37.0 °F 42% 30.36 in 10.0 mi NNE 15.0 mph 25.3 mph N/A   Clear
2:53 PM 60.1 °F 37.9 °F 44% 30.35 in 10.0 mi NNE 21.9 mph 27.6 mph N/A   Clear
3:53 PM 59.0 °F 37.9 °F 46% 30.34 in 10.0 mi NNE 17.3 mph 21.9 mph N/A   Clear
4:53 PM 57.9 °F 37.9 °F 47% 30.34 in 10.0 mi North 13.8 mph - N/A   Clear
5:53 PM 55.9 °F 37.9 °F 51% 30.34 in 10.0 mi North 8.1 mph - N/A   Clear
6:53 PM 51.1 °F 39.0 °F 63% 30.33 in 10.0 mi North 4.6 mph - N/A   Clear
7:53 PM 43.0 °F 37.0 °F 80% 30.35 in 10.0 mi Calm Calm - N/A   Clear
8:53 PM 39.9 °F 36.0 °F 86% 30.35 in 10.0 mi Calm Calm - N/A   Clear
9:53 PM 36.0 °F 33.1 °F 89% 30.34 in 10.0 mi Calm Calm - N/A   Clear
10:53 PM 34.0 °F 32.0 °F 92% 30.34 in 10.0 mi Calm Calm - N/A   Clear
11:53 PM 33.1 °F 30.9 °F 92% 30.33 in 10.0 mi Calm Calm - N/A   Clear